Regional Weather Roundup
Issued by NWS State College, PA

Home | Current Version | Previous Version | Graphics & Text | Print | Product List | Glossary On
Versions: 1 2 3 4 5 6 7 8 9 10 11 12 13 14 15 16 17 18 19 20 21 22 23 24 25 26 27 28 29 30 31 32 33 34 35 36 37 38 39 40 41 42 43 44 45 46 47 48 49 50
000
ASUS41 KCTP 280210
RWRCTP

REGIONAL WEATHER ROUNDUP
NATIONAL WEATHER SERVICE STATE COLLEGE PA
1000 PM EDT FRI MAR 27 2015

Note: "fair" indicates few or no clouds below 12,000 feet with no
significant weather and/or obstructions to visibility.

* = STATION THAT DOES NOT REPORT PRECIPITATION /E.G. RAIN...SNOW...ETC/
    THUNDER OR FOG.

PAZ002>004-007>009-013>016-020>023-029>032-280300-
WESTERN PENNSYLVANIA

CITY           SKY/WX    TMP DP  RH WIND       PRES   REMARKS
ERIE           CLOUDY    20  11  68 NW9       30.04S WCI   9
MEADVILLE      CLOUDY    18   9  68 NW12      29.99R WCI   5
FRANKLIN*      CLOUDY    18  10  73 NW8       29.98R WCI   7
NEW CASTLE     CLOUDY    20  13  74 N10       30.03R WCI   9
BEAVER COUNTY  NOT AVBL
BUTLER*        CLOUDY    23  16  74 N9        29.99R WCI  13
PITTSBURGH INT FLURRIES  24  19  81 N17       29.98R WCI  11
PITTSBURGH     LGT SNOW  24  16  71 N13       29.95R WCI  12
INDIANA*       CLOUDY    27  21  80 NW10      29.95R
LATROBE        MOCLDY    28  18  64 NW6       29.95R
WASHINGTON CO* CLOUDY    25  18  74 NW6       29.98R
$$

PAZ004>006-010>012-017>019-024>028-033>037-041-042-045-046-049>053-280300-
CENTRAL PENNSYLVANIA

CITY           SKY/WX    TMP DP  RH WIND       PRES   REMARKS
BRADFORD       LGT SNOW  21  15  78 NW13G22   29.86R WCI   9
DUBOIS         LGT SNOW  24  17  74 NW15G22   29.88R WCI  11
CLEARFIELD     CLOUDY    27  17  66 W7        29.87R
JOHNSTOWN      FLURRIES  24  16  71 NW13      29.83R WCI  12
ALTOONA        CLOUDY    29  20  69 NW13      29.87R
STATE COLLEGE  NOT AVBL
WILLIAMSPORT   CLOUDY    36  26  67 NW7       29.86R
SELINSGROVE    CLOUDY    39  23  52 NW12      29.85R
FT INDIANTOWN  CLOUDY    41  24  50 W10       29.82R
CAPITAL CITY   CLOUDY    41  21  44 NW13      29.85R
HARRISBURG     CLOUDY    41  23  48 NW18      29.84R
YORK           CLOUDY    40  23  50 NW8       29.83R
$$

PAZ038>040-043-044-047-048-054-055-060>062-067>071-280300-
EASTERN PENNSYLVANIA

CITY           SKY/WX    TMP DP  RH WIND       PRES   REMARKS
SCRANTON       CLOUDY    34  25  69 N9        29.81S
MOUNT POCONO   MOCLDY    31  22  69 N7        29.75S
ALLENTOWN      CLOUDY    39  24  55 N3        29.81S
QUAKERTOWN*    CLOUDY    39  25  56 N5        29.80R
READING        CLOUDY    39  21  48 NW6       29.81R
LANCASTER      CLOUDY    40  25  55 NW6       29.81S
COATESVILLE    MOCLDY    39  25  56 N6        29.80S
POTTSTOWN      CLOUDY    40  24  53 N5        29.82R
BLUE BELL      CLOUDY    43  27  52 CALM      29.80R
DOYLESTOWN     CLOUDY    38  25  59 N3        29.80R
WILLOW GROVE   NOT AVBL
NORTH PHILA    CLOUDY    43  23  45 N10       29.82R
PHILADELPHIA   CLOUDY    45  24  43 N9G20     29.81R
$$


USA.gov is the U.S. government's official web portal to all federal, state and local government web resources and services.